Location: Benque
(43.2594°N, 0.9178°E)
Time: 14:34:48
(UTC+00:00)

Cosmos 1842 Rocket - Pass Details

Date: 24 January 2020
Orbit: 606 x 633 km, 82.5° (Epoch: 22 February)

Event Time Altitude Azimuth Distance (km) Brightness Sun altitude
Rises 18:12:25 0° 1° (N) 2,930 6.9 -13.7°
Reaches altitude 10° 18:14:54 10° 12° (NNE) 2,021 5.9 -14.2°
Maximum altitude 18:18:52 31° 74° (ENE) 1,124 4.3 -14.9°
Drops below altitude 10° 18:22:50 10° 137° (SE) 2,012 5.9 -15.6°
Sets 18:25:17 0° 148° (SSE) 2,915 6.8 -16.0°
